Hourly Data Report for September 26, 2003

SHERBROOKE A
QUEBEC

45°26'00.000" N
71°41'00.000" W
241.40 m
7028124
71610
YSC

Download Data

Hourly Data (September 2003)
Hourly Data Report for September 26, 2003
TIME
LST
Temp Definition
°C
Dew Point Definition
°C
Rel Hum Definition
%
Precip. Amount Definition
mm

Wind Dir Definition
10's deg

Wind Spd Definition
km/h
Visibility Definition
km
Stn Press Definition
kPa
Hmdx Definition


Wind Chill Definition


Weather Definition


00:00 5.8 5.3 97     0 0.6 98.84      
01:00 5.1 4.4 95     0 0.8 98.90      
02:00 4.8 4.2 96     0 0.5 98.93      
03:00 5.8 5.2 96   10 4 8.0 98.97      
04:00 4.5 3.8 95   10 4 6.4 99.00      
05:00 2.6 1.9 95     0 0.3 99.06      
06:00 3.9 3.5 97   11 6 11.3 99.08      
07:00 6.6 6.0 96   9 6 24.1 99.14     Clear
08:00 9.3 7.8 90   9 6 24.1 99.17     Clear
09:00 12.5 8.4 76   10 4 24.1 99.18     Clear
10:00 14.5 9.2 70     0 24.1 99.13     Mainly Clear
11:00 16.3 9.8 65   9 6 24.1 99.12     Mainly Clear
12:00 17.6 8.6 56   16 4 24.1 99.06     Mainly Clear
13:00 16.9 8.4 57   7 4 24.1 99.01     Mainly Clear
14:00 17.9 8.3 53   36 4 24.1 98.98     Clear
15:00 18.4 8.8 54   36 7 24.1 98.93     Clear
16:00 17.9 8.7 55   36 6 24.1 98.93     Clear
17:00 16.5 11.1 70     0 15.0 98.92      
18:00 11.1 9.3 89     0 15.0 98.95      
19:00 9.0 7.8 92   10 6 15.0 98.98      
20:00 9.4 8.5 94   8 7 15.0 98.98      
21:00 9.7 8.8 94   7 4 15.0 98.99      
22:00 7.7 7.0 95     0 6.4 99.01      
23:00 8.6 8.0 96   5 4 9.7 99.02      

Notes on Data Quality.

Legend

  • E = Estimated
  • M = Missing
  • NA = Not Available*
  • [empty] = Indicates an unobserved value
Date modified: